Location: Newark
(36.0797°N, 3.9744°E)
Time: 14:59:22
(UTC+00:00)

Vanguard 2 - Pass Details

Date: 11 December 2019
Orbit: 553 x 2938 km, 32.9° (Epoch: 18 January)

Event Time Altitude Azimuth Distance (km) Brightness Sun altitude
Exits shadow 04:09:56 43° 264° (W) 3,717 10.4 -30.4°
Maximum altitude 04:18:03 78° 188° (S) 2,913 10.2 -28.8°
Drops below altitude 10° 04:33:29 10° 105° (ESE) 4,920 12.7 -25.7°
Sets 04:36:46 0° 104° (ESE) 5,671 13.4 -25.1°
